This is the latest recevied weather packets stored in our database for station/object KD8OZS. If no packets are shown the sender has not sent any weather packets the latest 10 day(s).
| Time | Temp. | Humidity | Pressure | Rain* | Wind** | Luminosity | Snow |
|---|---|---|---|---|---|---|---|
| 1777162760 | 9.44° C | 89% | 1007.4 hPa | 0 mm | - | 0 W/m² | - |
| 1777162455 | 9.44° C | 90% | 1007.3 hPa | 0 mm | - | 0 W/m² | - |
| 1777162154 | 10° C | 89% | 1007.3 hPa | 0 mm | - | 0 W/m² | - |
| 1777161850 | 9.44° C | 89% | 1007.1 hPa | 0 mm | - | 0 W/m² | - |
| 1777161547 | 10° C | 89% | 1007.2 hPa | 0 mm | - | 0 W/m² | - |
| 1777161243 | 10° C | 88% | 1007.1 hPa | 0 mm | - | 1 W/m² | - |
| 1777160939 | 10° C | 88% | 1006.8 hPa | 0 mm | - | 3 W/m² | - |
| 1777160634 | 10° C | 88% | 1006.7 hPa | 0 mm | - | 4 W/m² | - |
| 1777160330 | 10° C | 88% | 1006.7 hPa | 0 mm | - | 4 W/m² | - |
| 1777160027 | 10° C | 88% | 1006.8 hPa | 0 mm | - | 5 W/m² | - |
| 1777159723 | 10° C | 88% | 1006.7 hPa | 0 mm | - | 7 W/m² | - |
| 1777159418 | 10.56° C | 88% | 1006.6 hPa | 0 mm | - | 7 W/m² | - |
| 1777159115 | 10.56° C | 88% | 1006.4 hPa | 0 mm | - | 8 W/m² | - |
| 1777158812 | 10.56° C | 89% | 1006.3 hPa | 0 mm | - | 12 W/m² | - |
| 1777158511 | 10.56° C | 89% | 1006.2 hPa | 0 mm | - | 14 W/m² | - |
| 1777158207 | 10.56° C | 89% | 1006.2 hPa | 0 mm | - | 33 W/m² | - |
| 1777157902 | 10.56° C | 90% | 1006 hPa | 0 mm | - | 32 W/m² | - |
| 1777157599 | 11.11° C | 91% | 1006.2 hPa | 0 mm | - | 24 W/m² | - |
| 1777157295 | 11.11° C | 90% | 1006 hPa | 0 mm | - | 15 W/m² | - |
| 1777156994 | 11.11° C | 89% | 1005.8 hPa | 0 mm | - | 18 W/m² | - |
| 1777156689 | 11.11° C | 89% | 1005.9 hPa | 0 mm | - | 29 W/m² | - |
| 1777156386 | 11.11° C | 89% | 1005.9 hPa | 0 mm | - | 35 W/m² | - |
| 1777156082 | 11.11° C | 90% | 1005.7 hPa | 0 mm | - | 41 W/m² | - |
| 1777155779 | 11.67° C | 90% | 1005.8 hPa | 0 mm | - | 30 W/m² | - |
| 1777155474 | 11.67° C | 90% | 1005.5 hPa | 0 mm | - | 31 W/m² | - |
* Rain latest hour (hover to see other rain measurements)
** Current wind speed in m/s (hover to see current wind gust speed)